Time,TemperatureF,DewpointF,PressureIn,WindDirection,WindDirectionDegrees,WindSpeedMPH,WindSpeedGustMPH,Humidity,HourlyPrecipIn,Conditions,Clouds,dailyrainin,SoftwareType,DateUTC
2013-02-07 00:00:00,34.4,30.4,30.09,South,188,0.0,7.0,85,0.00,,,0.00,VWS V14.01,2013-02-07 06:00:00,
2013-02-07 00:05:00,34.4,30.4,30.09,South,186,0.0,0.0,85,0.00,,,0.00,VWS V14.01,2013-02-07 06:05:00,
2013-02-07 00:10:00,34.3,30.3,30.09,South,177,0.0,1.0,85,0.00,,,0.00,VWS V14.01,2013-02-07 06:10:00,
2013-02-07 00:15:00,34.3,30.3,30.09,SSE,162,0.0,5.0,85,0.00,,,0.00,VWS V14.01,2013-02-07 06:15:00,
2013-02-07 00:20:00,34.3,30.0,30.08,SSE,154,0.0,2.0,84,0.00,,,0.00,VWS V14.01,2013-02-07 06:20:00,
2013-02-07 00:25:00,34.4,30.4,30.08,SSE,162,0.0,3.0,85,0.00,,,0.00,VWS V14.01,2013-02-07 06:25:00,
2013-02-07 00:30:00,34.3,30.0,30.08,SE,146,0.0,0.0,84,0.00,,,0.00,VWS V14.01,2013-02-07 06:30:00,
2013-02-07 00:35:00,34.3,30.3,30.08,SE,144,0.0,0.0,85,0.00,,,0.00,VWS V14.01,2013-02-07 06:35:00,
2013-02-07 00:40:00,34.2,30.2,30.08,SE,143,0.0,0.0,85,0.00,,,0.00,VWS V14.01,2013-02-07 06:40:00,
2013-02-07 00:41:00,34.2,30.2,30.08,SE,141,0.0,0.0,85,0.00,,,0.00,VWS V14.01,2013-02-07 06:41:00,
2013-02-07 00:45:00,34.2,30.2,30.08,SE,128,2.0,5.0,85,0.00,,,0.00,VWS V14.01,2013-02-07 06:45:00,
2013-02-07 00:46:00,34.1,30.1,30.07,ESE,120,0.0,5.0,85,0.00,,,0.00,VWS V14.01,2013-02-07 06:46:00,
2013-02-07 00:50:00,34.1,30.4,30.07,SE,144,4.0,7.0,86,0.00,,,0.00,VWS V14.01,2013-02-07 06:50:00,
2013-02-07 00:51:00,34.1,30.4,30.07,SSE,153,4.0,8.0,86,0.00,,,0.00,VWS V14.01,2013-02-07 06:51:00,
2013-02-07 00:55:00,34.0,30.3,30.07,SE,137,6.0,9.0,86,0.00,,,0.00,VWS V14.01,2013-02-07 06:55:00,
2013-02-07 00:56:00,34.0,30.5,30.06,SE,126,8.0,10.0,87,0.00,,,0.00,VWS V14.01,2013-02-07 06:56:00,
2013-02-07 01:00:00,33.8,30.4,30.06,ESE,121,2.0,11.0,87,0.00,,,0.00,VWS V14.01,2013-02-07 07:00:00,
2013-02-07 01:01:00,33.8,30.6,30.05,SE,140,2.0,11.0,88,0.00,,,0.00,VWS V14.01,2013-02-07 07:01:00,
2013-02-07 01:05:00,33.7,30.5,30.07,SSE,157,7.0,13.0,88,0.00,,,0.00,VWS V14.01,2013-02-07 07:05:00,
2013-02-07 01:06:00,33.7,30.5,30.06,SE,132,5.0,13.0,88,0.00,,,0.00,VWS V14.01,2013-02-07 07:06:00,
2013-02-07 01:10:00,33.6,30.7,30.06,SSE,161,6.0,11.0,89,0.00,,,0.00,VWS V14.01,2013-02-07 07:10:00,
2013-02-07 01:11:00,33.6,30.7,30.07,South,182,7.0,11.0,89,0.00,,,0.00,VWS V14.01,2013-02-07 07:11:00,
2013-02-07 01:15:00,33.6,30.7,30.06,SSE,163,4.0,11.0,89,0.00,,,0.00,VWS V14.01,2013-02-07 07:15:00,
2013-02-07 01:16:00,33.6,30.7,30.07,SSE,148,3.0,10.0,89,0.00,,,0.00,VWS V14.01,2013-02-07 07:16:00,
2013-02-07 01:20:00,34.1,29.8,30.07,SW,217,7.0,10.0,84,0.00,,FEW070,0.00,VWS V14.01,2013-02-07 07:20:00,
2013-02-07 01:21:00,33.7,30.8,30.06,SSE,147,3.0,9.0,89,0.00,,,0.00,VWS V14.01,2013-02-07 07:21:00,
2013-02-07 01:25:00,34.2,29.9,30.07,South,191,4.0,7.0,84,0.00,,FEW070,0.00,VWS V14.01,2013-02-07 07:25:00,
2013-02-07 01:26:00,33.8,30.6,30.06,South,180,6.0,9.0,88,0.00,,,0.00,VWS V14.01,2013-02-07 07:26:00,
2013-02-07 01:30:00,34.2,29.9,30.07,SSW,195,3.0,7.0,84,0.00,,FEW070,0.00,VWS V14.01,2013-02-07 07:30:00,
2013-02-07 01:31:00,33.9,30.5,30.07,South,177,2.0,11.0,87,0.00,,,0.00,VWS V14.01,2013-02-07 07:31:00,
2013-02-07 01:35:00,34.0,30.3,30.07,North,360,7.0,9.0,86,0.00,,,0.00,VWS V14.01,2013-02-07 07:35:00,
2013-02-07 01:37:00,34.1,30.4,30.06,SSE,161,4.0,11.0,86,0.00,,,0.00,VWS V14.01,2013-02-07 07:37:00,
2013-02-07 01:40:00,34.1,30.1,30.06,SE,138,3.0,11.0,85,0.00,,,0.00,VWS V14.01,2013-02-07 07:40:00,
2013-02-07 01:42:00,34.0,30.0,30.06,SSE,155,4.0,7.0,85,0.00,,,0.00,VWS V14.01,2013-02-07 07:42:00,
2013-02-07 01:45:00,34.0,30.0,30.07,SSE,165,5.0,10.0,85,0.00,,,0.00,VWS V14.01,2013-02-07 07:45:00,
2013-02-07 01:47:00,34.1,30.1,30.07,South,176,4.0,10.0,85,0.00,,,0.00,VWS V14.01,2013-02-07 07:47:00,
2013-02-07 01:50:00,34.0,30.0,30.07,SSE,166,4.0,9.0,85,0.00,,,0.00,VWS V14.01,2013-02-07 07:50:00,
2013-02-07 01:52:00,34.0,30.0,30.06,South,178,3.0,9.0,85,0.00,,,0.00,VWS V14.01,2013-02-07 07:52:00,
2013-02-07 01:55:00,34.0,30.0,30.06,SSE,153,6.0,9.0,85,0.00,,,0.00,VWS V14.01,2013-02-07 07:55:00,
2013-02-07 01:57:00,33.9,29.9,30.05,SE,140,7.0,10.0,85,0.00,,,0.00,VWS V14.01,2013-02-07 07:57:00,
2013-02-07 02:00:00,33.9,29.9,30.05,SSE,165,3.0,10.0,85,0.00,,,0.00,VWS V14.01,2013-02-07 08:00:00,
2013-02-07 02:02:00,33.9,29.9,30.06,South,180,4.0,7.0,85,0.00,,,0.00,VWS V14.01,2013-02-07 08:02:00,
2013-02-07 02:05:00,33.9,29.9,30.07,South,179,3.0,9.0,85,0.00,,,0.00,VWS V14.01,2013-02-07 08:05:00,
2013-02-07 02:07:00,34.0,30.0,30.06,South,169,5.0,9.0,85,0.00,,,0.00,VWS V14.01,2013-02-07 08:07:00,
2013-02-07 02:10:00,33.9,29.9,30.06,SSE,163,4.0,9.0,85,0.00,,,0.00,VWS V14.01,2013-02-07 08:10:00,
2013-02-07 02:12:00,34.0,30.0,30.07,South,174,3.0,9.0,85,0.00,,,0.00,VWS V14.01,2013-02-07 08:12:00,
2013-02-07 02:15:00,34.0,29.7,30.06,South,182,7.0,7.0,84,0.00,,,0.00,VWS V14.01,2013-02-07 08:15:00,
2013-02-07 02:17:00,34.1,29.8,30.07,South,175,4.0,7.0,84,0.00,,,0.00,VWS V14.01,2013-02-07 08:17:00,
2013-02-07 02:20:00,34.1,29.8,30.07,SW,217,7.0,10.0,84,0.00,,,0.00,VWS V14.01,2013-02-07 08:20:00,
2013-02-07 02:22:00,34.1,29.8,30.07,South,180,0.0,10.0,84,0.00,,,0.00,VWS V14.01,2013-02-07 08:22:00,
2013-02-07 02:25:00,34.2,29.9,30.07,South,191,4.0,7.0,84,0.00,,,0.00,VWS V14.01,2013-02-07 08:25:00,
2013-02-07 02:27:00,34.2,29.9,30.07,South,186,4.0,7.0,84,0.00,,,0.00,VWS V14.01,2013-02-07 08:27:00,
2013-02-07 02:30:00,34.0,30.0,30.05,SSE,157,0.0,5.0,85,0.00,,FEW070,0.00,VWS V14.01,2013-02-07 08:30:00,
2013-02-07 02:32:00,34.2,29.9,30.07,South,185,3.0,6.0,84,0.00,,,0.00,VWS V14.01,2013-02-07 08:32:00,
2013-02-07 02:35:00,34.2,29.9,30.07,South,191,0.0,4.0,84,0.00,,,0.00,VWS V14.01,2013-02-07 08:35:00,
2013-02-07 02:37:00,34.1,29.8,30.07,South,187,0.0,7.0,84,0.00,,,0.00,VWS V14.01,2013-02-07 08:37:00,
2013-02-07 02:40:00,34.2,29.9,30.07,SSW,203,0.0,7.0,84,0.00,,,0.00,VWS V14.01,2013-02-07 08:40:00,
2013-02-07 02:42:00,34.2,29.9,30.06,SSE,155,0.0,6.0,84,0.00,,,0.00,VWS V14.01,2013-02-07 08:42:00,
2013-02-07 02:45:00,34.1,29.8,30.06,South,180,0.0,5.0,84,0.00,,,0.00,VWS V14.01,2013-02-07 08:45:00,
2013-02-07 02:47:00,34.1,29.8,30.06,SSE,168,0.0,8.0,84,0.00,,,0.00,VWS V14.01,2013-02-07 08:47:00,
2013-02-07 02:50:00,34.1,29.8,30.06,SSE,167,0.0,8.0,84,0.00,,,0.00,VWS V14.01,2013-02-07 08:50:00,
2013-02-07 02:53:00,34.1,29.8,30.06,SSE,167,0.0,0.0,84,0.00,,,0.00,VWS V14.01,2013-02-07 08:53:00,
2013-02-07 02:55:00,34.1,29.8,30.06,South,179,0.0,5.0,84,0.00,,,0.00,VWS V14.01,2013-02-07 08:55:00,
2013-02-07 02:58:00,34.0,29.7,30.06,South,178,0.0,3.0,84,0.00,,,0.00,VWS V14.01,2013-02-07 08:58:00,
2013-02-07 03:00:00,34.0,29.7,30.06,South,181,0.0,3.0,84,0.00,,,0.00,VWS V14.01,2013-02-07 09:00:00,
2013-02-07 03:03:00,34.1,29.8,30.06,SSE,166,3.0,6.0,84,0.00,,,0.00,VWS V14.01,2013-02-07 09:03:00,
2013-02-07 03:05:00,33.8,30.1,30.05,SSE,153,4.0,7.0,86,0.00,,FEW070,0.00,VWS V14.01,2013-02-07 09:05:00,
2013-02-07 03:08:00,34.2,29.9,30.06,South,185,0.0,4.0,84,0.00,,,0.00,VWS V14.01,2013-02-07 09:08:00,
2013-02-07 03:10:00,33.8,30.1,30.05,SSE,147,6.0,7.0,86,0.00,,FEW070,0.00,VWS V14.01,2013-02-07 09:10:00,
2013-02-07 03:13:00,34.1,29.8,30.05,South,170,1.0,7.0,84,0.00,,,0.00,VWS V14.01,2013-02-07 09:13:00,
2013-02-07 03:15:00,34.1,29.8,30.05,South,170,2.0,7.0,84,0.00,,,0.00,VWS V14.01,2013-02-07 09:15:00,
2013-02-07 03:18:00,34.1,29.8,30.05,South,177,6.0,6.0,84,0.00,,,0.00,VWS V14.01,2013-02-07 09:18:00,
2013-02-07 03:20:00,34.1,29.8,30.05,South,183,6.0,6.0,84,0.00,,,0.00,VWS V14.01,2013-02-07 09:20:00,
2013-02-07 03:23:00,34.1,30.1,30.05,SSE,153,3.0,6.0,85,0.00,,,0.00,VWS V14.01,2013-02-07 09:23:00,
2013-02-07 03:25:00,34.0,30.0,30.05,SSE,153,0.0,5.0,85,0.00,,,0.00,VWS V14.01,2013-02-07 09:25:00,
2013-02-07 03:28:00,34.0,30.0,30.05,SSE,157,0.0,2.0,85,0.00,,,0.00,VWS V14.01,2013-02-07 09:28:00,
2013-02-07 03:30:00,34.0,30.0,30.05,SSE,157,0.0,5.0,85,0.00,,,0.00,VWS V14.01,2013-02-07 09:30:00,
2013-02-07 03:33:00,33.9,29.9,30.05,South,171,0.0,7.0,85,0.00,,,0.00,VWS V14.01,2013-02-07 09:33:00,
2013-02-07 03:35:00,33.9,29.9,30.05,SSE,163,0.0,6.0,85,0.00,,,0.00,VWS V14.01,2013-02-07 09:35:00,
2013-02-07 03:38:00,33.9,29.9,30.05,SSE,164,0.0,4.0,85,0.00,,,0.00,VWS V14.01,2013-02-07 09:38:00,
2013-02-07 03:40:00,33.9,29.9,30.05,SSE,167,6.0,6.0,85,0.00,,,0.00,VWS V14.01,2013-02-07 09:40:00,
2013-02-07 03:43:00,33.9,30.2,30.05,SSE,150,2.0,10.0,86,0.00,,,0.00,VWS V14.01,2013-02-07 09:43:00,
2013-02-07 03:45:00,33.9,30.2,30.05,SSE,150,0.0,10.0,86,0.00,,,0.00,VWS V14.01,2013-02-07 09:45:00,
2013-02-07 03:49:00,33.9,30.2,30.05,SSE,153,3.0,8.0,86,0.00,,,0.00,VWS V14.01,2013-02-07 09:49:00,
2013-02-07 03:50:00,33.9,30.2,30.05,SSE,165,1.0,8.0,86,0.00,,,0.00,VWS V14.01,2013-02-07 09:50:00,
2013-02-07 03:54:00,33.9,30.2,30.05,SSE,167,0.0,7.0,86,0.00,,,0.00,VWS V14.01,2013-02-07 09:54:00,
2013-02-07 03:55:00,33.9,30.2,30.05,SSE,167,0.0,7.0,86,0.00,,,0.00,VWS V14.01,2013-02-07 09:55:00,
2013-02-07 03:59:00,33.9,30.2,30.05,SSE,149,0.0,8.0,86,0.00,,,0.00,VWS V14.01,2013-02-07 09:59:00,
2013-02-07 04:00:00,33.9,30.2,30.05,SSE,149,0.0,4.0,86,0.00,,,0.00,VWS V14.01,2013-02-07 10:00:00,
2013-02-07 04:04:00,33.8,30.1,30.05,SSE,150,6.0,7.0,86,0.00,,,0.00,VWS V14.01,2013-02-07 10:04:00,
2013-02-07 04:05:00,33.8,29.8,30.03,SSE,157,6.0,8.0,85,0.00,,FEW070,0.00,VWS V14.01,2013-02-07 10:05:00,
2013-02-07 04:09:00,33.8,30.1,30.05,SE,145,0.0,6.0,86,0.00,,,0.00,VWS V14.01,2013-02-07 10:09:00,
2013-02-07 04:10:00,33.8,30.1,30.05,SSE,147,6.0,7.0,86,0.00,,,0.00,VWS V14.01,2013-02-07 10:10:00,
2013-02-07 04:14:00,33.8,30.1,30.04,SSE,159,1.0,8.0,86,0.00,,,0.00,VWS V14.01,2013-02-07 10:14:00,
2013-02-07 04:15:00,33.8,30.1,30.04,SSE,159,0.0,8.0,86,0.00,,,0.00,VWS V14.01,2013-02-07 10:15:00,
2013-02-07 04:19:00,33.7,30.0,30.05,SE,140,4.0,8.0,86,0.00,,,0.00,VWS V14.01,2013-02-07 10:19:00,
2013-02-07 04:20:00,33.7,30.0,30.05,SE,140,3.0,8.0,86,0.00,,,0.00,VWS V14.01,2013-02-07 10:20:00,
2013-02-07 04:24:00,33.7,30.0,30.05,South,169,4.0,8.0,86,0.00,,,0.00,VWS V14.01,2013-02-07 10:24:00,
2013-02-07 04:25:00,33.7,30.0,30.05,South,169,4.0,8.0,86,0.00,,,0.00,VWS V14.01,2013-02-07 10:25:00,
2013-02-07 04:29:00,33.7,30.0,30.04,SSE,157,5.0,9.0,86,0.00,,,0.00,VWS V14.01,2013-02-07 10:29:00,
2013-02-07 04:30:00,33.7,30.0,30.04,SSE,166,4.0,9.0,86,0.00,,,0.00,VWS V14.01,2013-02-07 10:30:00,
2013-02-07 04:34:00,33.7,30.0,30.04,SSE,155,5.0,10.0,86,0.00,,,0.00,VWS V14.01,2013-02-07 10:34:00,
2013-02-07 04:35:00,33.7,30.0,30.04,SSE,155,5.0,10.0,86,0.00,,,0.00,VWS V14.01,2013-02-07 10:35:00,
2013-02-07 04:39:00,33.7,29.7,30.04,SSE,168,6.0,9.0,85,0.00,,,0.00,VWS V14.01,2013-02-07 10:39:00,
2013-02-07 04:40:00,33.6,29.6,30.02,SE,136,7.0,13.0,85,0.00,,FEW070,0.00,VWS V14.01,2013-02-07 10:40:00,
2013-02-07 04:44:00,33.7,29.7,30.04,SSE,168,9.0,9.0,85,0.00,,,0.00,VWS V14.01,2013-02-07 10:44:00,
2013-02-07 04:45:00,33.6,29.6,30.02,SSE,163,5.0,12.0,85,0.00,,FEW070,0.00,VWS V14.01,2013-02-07 10:45:00,
2013-02-07 04:50:00,33.7,29.7,30.04,SSE,150,4.0,12.0,85,0.00,,,0.00,VWS V14.01,2013-02-07 10:50:00,
2013-02-07 04:55:00,33.8,29.8,30.03,South,173,5.0,9.0,85,0.00,,,0.00,VWS V14.01,2013-02-07 10:55:00,
2013-02-07 05:00:00,33.8,29.8,30.04,South,183,6.0,10.0,85,0.00,,,0.00,VWS V14.01,2013-02-07 11:00:00,
2013-02-07 05:05:00,33.7,29.7,30.03,SSE,161,6.0,8.0,85,0.00,,,0.00,VWS V14.01,2013-02-07 11:05:00,
2013-02-07 05:10:00,33.7,29.7,30.03,SSE,150,7.0,10.0,85,0.00,,,0.00,VWS V14.01,2013-02-07 11:10:00,
2013-02-07 05:15:00,33.7,29.7,30.03,South,180,9.0,11.0,85,0.00,,,0.00,VWS V14.01,2013-02-07 11:15:00,
2013-02-07 05:20:00,33.7,29.7,30.03,SE,140,9.0,11.0,85,0.00,,,0.00,VWS V14.01,2013-02-07 11:20:00,
2013-02-07 05:25:00,33.7,29.4,30.03,South,184,6.0,9.0,84,0.00,,,0.00,VWS V14.01,2013-02-07 11:25:00,
2013-02-07 05:30:00,33.6,29.6,30.02,South,169,6.0,12.0,85,0.00,,,0.00,VWS V14.01,2013-02-07 11:30:00,
2013-02-07 05:35:00,33.6,29.6,30.02,South,178,6.0,12.0,85,0.00,,,0.00,VWS V14.01,2013-02-07 11:35:00,
2013-02-07 05:36:00,33.6,29.6,30.02,South,170,10.0,13.0,85,0.00,,,0.00,VWS V14.01,2013-02-07 11:36:00,
2013-02-07 05:40:00,33.6,29.6,30.02,SE,136,7.0,13.0,85,0.00,,,0.00,VWS V14.01,2013-02-07 11:40:00,
2013-02-07 05:41:00,33.6,29.6,30.02,South,172,4.0,13.0,85,0.00,,,0.00,VWS V14.01,2013-02-07 11:41:00,
2013-02-07 05:45:00,33.6,29.6,30.02,SSE,163,5.0,12.0,85,0.00,,,0.00,VWS V14.01,2013-02-07 11:45:00,
2013-02-07 05:46:00,33.6,29.9,30.02,South,171,4.0,12.0,86,0.00,,,0.00,VWS V14.01,2013-02-07 11:46:00,
2013-02-07 05:50:00,33.6,29.9,30.02,South,174,7.0,12.0,86,0.00,,,0.00,VWS V14.01,2013-02-07 11:50:00,
2013-02-07 05:51:00,33.6,29.9,30.02,SSE,163,3.0,12.0,86,0.00,,,0.00,VWS V14.01,2013-02-07 11:51:00,
2013-02-07 05:55:00,33.6,29.9,30.02,South,180,4.0,13.0,86,0.00,,,0.00,VWS V14.01,2013-02-07 11:55:00,
2013-02-07 05:56:00,33.6,29.9,30.02,SSE,159,4.0,13.0,86,0.00,,,0.00,VWS V14.01,2013-02-07 11:56:00,
2013-02-07 06:00:00,33.5,29.8,30.02,SE,144,9.0,12.0,86,0.00,,,0.00,VWS V14.01,2013-02-07 12:00:00,
2013-02-07 06:01:00,33.5,29.8,30.02,SSE,168,6.0,12.0,86,0.00,,,0.00,VWS V14.01,2013-02-07 12:01:00,
2013-02-07 06:05:00,33.5,30.0,30.02,SSE,159,4.0,13.0,87,0.00,,,0.00,VWS V14.01,2013-02-07 12:05:00,
2013-02-07 06:06:00,33.5,29.8,30.01,South,177,4.0,13.0,86,0.00,,,0.00,VWS V14.01,2013-02-07 12:06:00,
2013-02-07 06:10:00,33.5,30.0,30.02,SSE,149,5.0,9.0,87,0.00,,,0.00,VWS V14.01,2013-02-07 12:10:00,
2013-02-07 06:11:00,33.5,30.0,30.01,South,174,7.0,8.0,87,0.00,,,0.00,VWS V14.01,2013-02-07 12:11:00,
2013-02-07 06:15:00,33.5,30.0,30.01,SSE,157,3.0,13.0,87,0.00,,,0.00,VWS V14.01,2013-02-07 12:15:00,
2013-02-07 06:16:00,33.5,30.0,30.01,South,169,9.0,12.0,87,0.00,,,0.00,VWS V14.01,2013-02-07 12:16:00,
2013-02-07 06:20:00,33.4,30.0,30.01,SE,144,5.0,10.0,87,0.00,,,0.00,VWS V14.01,2013-02-07 12:20:00,
2013-02-07 06:21:00,33.5,30.0,30.01,SE,124,5.0,10.0,87,0.00,,,0.00,VWS V14.01,2013-02-07 12:21:00,
2013-02-07 06:25:00,33.5,30.0,30.01,North,360,6.0,12.0,87,0.00,,,0.00,VWS V14.01,2013-02-07 12:25:00,
2013-02-07 06:26:00,33.5,30.0,30.02,SSE,148,4.0,13.0,87,0.00,,,0.00,VWS V14.01,2013-02-07 12:26:00,
2013-02-07 06:30:00,33.5,30.0,30.01,SSE,161,6.0,12.0,87,0.00,,,0.00,VWS V14.01,2013-02-07 12:30:00,
2013-02-07 06:31:00,33.5,30.0,30.01,SSE,165,7.0,10.0,87,0.00,,,0.00,VWS V14.01,2013-02-07 12:31:00,
2013-02-07 06:35:00,33.6,30.1,30.01,South,172,9.0,9.0,87,0.00,,,0.00,VWS V14.01,2013-02-07 12:35:00,
2013-02-07 06:37:00,33.5,30.0,30.01,SSE,167,6.0,9.0,87,0.00,,,0.00,VWS V14.01,2013-02-07 12:37:00,
2013-02-07 06:40:00,33.6,30.1,30.01,SSE,161,5.0,12.0,87,0.00,,,0.00,VWS V14.01,2013-02-07 12:40:00,
2013-02-07 06:42:00,33.6,30.1,30.01,South,172,6.0,12.0,87,0.00,,,0.00,VWS V14.01,2013-02-07 12:42:00,
2013-02-07 06:45:00,33.6,30.1,30.01,South,171,8.0,13.0,87,0.00,,,0.00,VWS V14.01,2013-02-07 12:45:00,
2013-02-07 06:47:00,33.6,30.1,30.01,South,177,2.0,17.0,87,0.00,,,0.00,VWS V14.01,2013-02-07 12:47:00,
2013-02-07 06:50:00,33.6,30.4,30.01,South,180,4.0,14.0,88,0.00,,,0.00,VWS V14.01,2013-02-07 12:50:00,
2013-02-07 06:52:00,33.6,30.4,30.01,SSE,166,8.0,12.0,88,0.00,,,0.00,VWS V14.01,2013-02-07 12:52:00,
2013-02-07 06:55:00,33.5,30.3,30.01,SSE,154,2.0,11.0,88,0.00,,,0.00,VWS V14.01,2013-02-07 12:55:00,
2013-02-07 06:57:00,33.5,30.3,30.01,South,181,4.0,11.0,88,0.00,,,0.00,VWS V14.01,2013-02-07 12:57:00,
2013-02-07 07:00:00,33.4,30.2,30.01,South,171,4.0,12.0,88,0.00,,,0.00,VWS V14.01,2013-02-07 13:00:00,
2013-02-07 07:02:00,33.4,30.2,30.01,South,171,5.0,12.0,88,0.00,,,0.00,VWS V14.01,2013-02-07 13:02:00,
2013-02-07 07:05:00,33.4,30.5,30.01,South,180,12.0,12.0,89,0.00,,,0.00,VWS V14.01,2013-02-07 13:05:00,
2013-02-07 07:07:00,33.4,30.5,30.01,SSE,150,0.0,12.0,89,0.00,,,0.00,VWS V14.01,2013-02-07 13:07:00,
2013-02-07 07:10:00,33.3,30.4,30.01,SE,146,3.0,9.0,89,0.00,,,0.00,VWS V14.01,2013-02-07 13:10:00,
2013-02-07 07:12:00,33.3,30.4,30.01,SSE,160,5.0,7.0,89,0.00,,,0.00,VWS V14.01,2013-02-07 13:12:00,
2013-02-07 07:15:00,33.3,30.4,30.01,SSE,159,4.0,10.0,89,0.00,,,0.00,VWS V14.01,2013-02-07 13:15:00,
2013-02-07 07:17:00,33.3,30.4,30.01,SSW,202,0.0,9.0,89,0.00,,,0.00,VWS V14.01,2013-02-07 13:17:00,
2013-02-07 07:20:00,33.3,30.4,30.01,SSE,154,0.0,6.0,89,0.00,,,0.00,VWS V14.01,2013-02-07 13:20:00,
2013-02-07 07:22:00,33.3,30.4,30.01,South,182,0.0,9.0,89,0.00,,,0.00,VWS V14.01,2013-02-07 13:22:00,
2013-02-07 07:25:00,33.3,30.4,30.01,SE,146,0.0,9.0,89,0.00,,,0.00,VWS V14.01,2013-02-07 13:25:00,
2013-02-07 07:27:00,33.3,30.4,30.01,SE,144,5.0,6.0,89,0.00,,,0.00,VWS V14.01,2013-02-07 13:27:00,
2013-02-07 07:30:00,33.3,30.4,30.01,SE,141,2.0,7.0,89,0.00,,,0.00,VWS V14.01,2013-02-07 13:30:00,
2013-02-07 07:32:00,33.3,30.4,30.01,SE,143,0.0,5.0,89,0.00,,,0.00,VWS V14.01,2013-02-07 13:32:00,
2013-02-07 07:35:00,33.3,30.4,30.01,SE,142,0.0,3.0,89,0.00,,,0.00,VWS V14.01,2013-02-07 13:35:00,
2013-02-07 07:38:00,33.3,30.7,30.01,South,176,0.0,7.0,90,0.00,,,0.00,VWS V14.01,2013-02-07 13:38:00,
2013-02-07 07:40:00,33.3,30.7,30.01,South,176,0.0,7.0,90,0.00,,,0.00,VWS V14.01,2013-02-07 13:40:00,
2013-02-07 07:43:00,33.2,30.6,30.01,South,169,0.0,2.0,90,0.00,,,0.00,VWS V14.01,2013-02-07 13:43:00,
2013-02-07 07:45:00,33.2,30.6,30.01,South,175,4.0,8.0,90,0.00,,,0.00,VWS V14.01,2013-02-07 13:45:00,
2013-02-07 07:48:00,33.2,30.6,30.01,South,169,4.0,11.0,90,0.00,,,0.00,VWS V14.01,2013-02-07 13:48:00,
2013-02-07 07:50:00,33.3,30.7,30.01,SE,139,4.0,11.0,90,0.00,,,0.00,VWS V14.01,2013-02-07 13:50:00,
2013-02-07 07:53:00,33.3,30.7,30.01,South,188,0.0,8.0,90,0.00,,,0.00,VWS V14.01,2013-02-07 13:53:00,
2013-02-07 07:55:00,33.3,30.7,30.01,SSE,160,0.0,8.0,90,0.00,,,0.00,VWS V14.01,2013-02-07 13:55:00,
2013-02-07 07:58:00,33.3,30.7,30.01,SSE,160,0.0,3.0,90,0.00,,,0.00,VWS V14.01,2013-02-07 13:58:00,
2013-02-07 08:00:00,33.3,30.7,30.01,SE,135,7.0,7.0,90,0.00,,,0.00,VWS V14.01,2013-02-07 14:00:00,
2013-02-07 08:03:00,33.3,30.7,30.01,South,185,7.0,7.0,90,0.00,,,0.00,VWS V14.01,2013-02-07 14:03:00,
2013-02-07 08:05:00,33.3,30.7,30.01,South,171,0.0,10.0,90,0.00,,,0.00,VWS V14.01,2013-02-07 14:05:00,
2013-02-07 08:08:00,33.4,30.8,30.01,South,182,6.0,8.0,90,0.00,,,0.00,VWS V14.01,2013-02-07 14:08:00,
2013-02-07 08:10:00,33.4,30.8,30.01,South,182,0.0,8.0,90,0.00,,,0.00,VWS V14.01,2013-02-07 14:10:00,
2013-02-07 08:13:00,33.3,30.7,30.01,South,171,5.0,8.0,90,0.00,,,0.00,VWS V14.01,2013-02-07 14:13:00,
2013-02-07 08:15:00,33.3,30.7,30.01,South,169,0.0,8.0,90,0.00,,,0.00,VWS V14.01,2013-02-07 14:15:00,
2013-02-07 08:18:00,33.3,30.7,30.01,SSE,164,0.0,5.0,90,0.00,,,0.00,VWS V14.01,2013-02-07 14:18:00,
2013-02-07 08:20:00,33.3,30.7,30.01,South,174,0.0,5.0,90,0.00,,,0.00,VWS V14.01,2013-02-07 14:20:00,
2013-02-07 08:23:00,33.3,30.7,30.01,South,171,0.0,3.0,90,0.00,,,0.00,VWS V14.01,2013-02-07 14:23:00,
2013-02-07 08:25:00,33.1,31.0,29.99,SE,142,5.0,8.0,92,0.00,,FEW070,0.00,VWS V14.01,2013-02-07 14:25:00,
2013-02-07 08:28:00,33.3,30.7,30.00,SSE,150,0.0,0.0,90,0.00,,,0.00,VWS V14.01,2013-02-07 14:28:00,
2013-02-07 08:30:00,33.2,31.4,29.99,SSE,157,5.0,6.0,93,0.00,,FEW070,0.00,VWS V14.01,2013-02-07 14:30:00,
2013-02-07 08:33:00,33.3,30.7,30.00,SE,135,0.0,0.0,90,0.00,,,0.00,VWS V14.01,2013-02-07 14:33:00,
2013-02-07 08:35:00,33.3,30.7,30.00,SE,135,0.0,0.0,90,0.00,,,0.00,VWS V14.01,2013-02-07 14:35:00,
2013-02-07 08:38:00,33.3,30.7,30.01,SE,143,0.0,7.0,90,0.00,,,0.00,VWS V14.01,2013-02-07 14:38:00,
2013-02-07 08:40:00,33.3,30.7,30.01,SE,143,0.0,4.0,90,0.00,,,0.00,VWS V14.01,2013-02-07 14:40:00,
2013-02-07 08:44:00,33.3,30.7,30.00,SE,141,0.0,6.0,90,0.00,,,0.00,VWS V14.01,2013-02-07 14:44:00,
2013-02-07 08:45:00,33.3,30.7,30.00,SE,141,0.0,6.0,90,0.00,,,0.00,VWS V14.01,2013-02-07 14:45:00,
2013-02-07 08:49:00,33.3,31.0,30.01,SE,132,5.0,8.0,91,0.00,,,0.00,VWS V14.01,2013-02-07 14:49:00,
2013-02-07 08:50:00,33.3,31.0,30.01,SE,132,1.0,8.0,91,0.00,,,0.00,VWS V14.01,2013-02-07 14:50:00,
2013-02-07 08:54:00,33.3,31.0,30.00,SE,125,0.0,6.0,91,0.00,,,0.00,VWS V14.01,2013-02-07 14:54:00,
2013-02-07 08:55:00,33.2,30.9,30.00,ESE,119,0.0,6.0,91,0.00,,,0.00,VWS V14.01,2013-02-07 14:55:00,
2013-02-07 08:59:00,33.2,30.9,30.00,SSE,157,0.0,4.0,91,0.00,,,0.00,VWS V14.01,2013-02-07 14:59:00,
2013-02-07 09:00:00,33.3,31.0,30.00,SE,129,3.0,4.0,91,0.00,,,0.00,VWS V14.01,2013-02-07 15:00:00,
2013-02-07 09:04:00,33.2,30.9,30.00,SSE,157,0.0,5.0,91,0.00,,,0.00,VWS V14.01,2013-02-07 15:04:00,
2013-02-07 09:05:00,33.2,30.9,30.00,SSE,154,2.0,5.0,91,0.00,,,0.00,VWS V14.01,2013-02-07 15:05:00,
2013-02-07 09:09:00,33.1,31.0,30.00,SSE,150,3.0,5.0,92,0.00,,,0.00,VWS V14.01,2013-02-07 15:09:00,
2013-02-07 09:10:00,33.1,31.0,30.00,SSE,150,2.0,5.0,92,0.00,,,0.00,VWS V14.01,2013-02-07 15:10:00,
2013-02-07 09:14:00,33.1,31.0,30.00,SSE,161,0.0,6.0,92,0.00,,,0.00,VWS V14.01,2013-02-07 15:14:00,
2013-02-07 09:15:00,33.1,31.0,30.00,SSE,161,0.0,6.0,92,0.00,,,0.00,VWS V14.01,2013-02-07 15:15:00,
2013-02-07 09:19:00,33.1,31.0,29.99,SSE,157,0.0,6.0,92,0.00,,,0.00,VWS V14.01,2013-02-07 15:19:00,
2013-02-07 09:20:00,33.1,31.0,29.99,SSE,157,0.0,6.0,92,0.00,,,0.00,VWS V14.01,2013-02-07 15:20:00,
2013-02-07 09:24:00,33.1,31.0,29.99,SE,142,4.0,8.0,92,0.00,,,0.00,VWS V14.01,2013-02-07 15:24:00,
2013-02-07 09:25:00,33.1,31.0,29.99,SE,142,5.0,8.0,92,0.00,,,0.00,VWS V14.01,2013-02-07 15:25:00,
2013-02-07 09:29:00,33.2,31.4,29.99,SSE,157,5.0,6.0,93,0.00,,,0.00,VWS V14.01,2013-02-07 15:29:00,
2013-02-07 09:30:00,33.2,31.4,29.99,SSE,157,5.0,6.0,93,0.00,,,0.00,VWS V14.01,2013-02-07 15:30:00,
2013-02-07 09:34:00,33.2,31.4,29.99,SSE,147,0.0,6.0,93,0.00,,,0.00,VWS V14.01,2013-02-07 15:34:00,
2013-02-07 09:35:00,33.2,31.4,29.99,SSE,147,0.0,6.0,93,0.00,,,0.00,VWS V14.01,2013-02-07 15:35:00,
2013-02-07 09:39:00,33.3,31.5,29.99,South,182,2.0,8.0,93,0.00,,,0.00,VWS V14.01,2013-02-07 15:39:00,
2013-02-07 09:40:00,33.3,31.5,29.99,South,182,2.0,8.0,93,0.00,,,0.00,VWS V14.01,2013-02-07 15:40:00,
2013-02-07 09:44:00,33.4,31.6,29.99,SSE,157,4.0,7.0,93,0.00,,,0.00,VWS V14.01,2013-02-07 15:44:00,
2013-02-07 09:45:00,33.4,31.6,29.99,SSE,157,4.0,7.0,93,0.00,,,0.00,VWS V14.01,2013-02-07 15:45:00,
2013-02-07 09:49:00,33.4,31.6,29.99,South,174,2.0,7.0,93,0.00,,,0.00,VWS V14.01,2013-02-07 15:49:00,
2013-02-07 09:50:00,33.4,31.6,29.99,South,174,2.0,7.0,93,0.00,,,0.00,VWS V14.01,2013-02-07 15:50:00,
2013-02-07 09:54:00,33.4,31.6,29.99,SSE,148,0.0,5.0,93,0.00,,,0.00,VWS V14.01,2013-02-07 15:54:00,
2013-02-07 09:55:00,33.4,31.6,29.99,SSE,148,0.0,5.0,93,0.00,,,0.00,VWS V14.01,2013-02-07 15:55:00,
2013-02-07 10:00:00,33.4,31.6,29.98,South,178,0.0,10.0,93,0.00,,,0.00,VWS V14.01,2013-02-07 16:00:00,
2013-02-07 10:05:00,33.5,31.7,29.98,SE,127,0.0,5.0,93,0.00,,,0.00,VWS V14.01,2013-02-07 16:05:00,
2013-02-07 10:10:00,33.5,31.7,29.99,SSE,150,2.0,6.0,93,0.00,,,0.00,VWS V14.01,2013-02-07 16:10:00,
2013-02-07 10:15:00,33.4,31.6,29.99,SSE,165,0.0,7.0,93,0.00,,,0.00,VWS V14.01,2013-02-07 16:15:00,
2013-02-07 10:16:00,33.5,31.7,29.98,SSE,165,0.0,7.0,93,0.00,,,0.00,VWS V14.01,2013-02-07 16:16:00,
2013-02-07 10:20:00,33.5,31.7,29.98,South,180,5.0,5.0,93,0.00,,,0.00,VWS V14.01,2013-02-07 16:20:00,
2013-02-07 10:25:00,33.4,31.6,29.99,South,174,0.0,7.0,93,0.00,,,0.00,VWS V14.01,2013-02-07 16:25:00,
2013-02-07 10:30:00,33.5,31.7,29.99,SSE,168,3.0,8.0,93,0.01,,,0.01,VWS V14.01,2013-02-07 16:30:00,
2013-02-07 10:35:00,33.5,31.7,29.99,South,182,4.0,10.0,93,0.01,,,0.01,VWS V14.01,2013-02-07 16:35:00,
2013-02-07 10:40:00,33.5,31.7,29.99,SSE,155,5.0,9.0,93,0.01,,,0.01,VWS V14.01,2013-02-07 16:40:00,
2013-02-07 10:45:00,33.4,31.6,29.99,South,170,3.0,12.0,93,0.01,,,0.01,VWS V14.01,2013-02-07 16:45:00,
2013-02-07 10:50:00,33.5,31.7,29.99,South,169,0.0,8.0,93,0.01,,,0.01,VWS V14.01,2013-02-07 16:50:00,
2013-02-07 10:55:00,33.4,31.6,29.98,SSW,192,2.0,7.0,93,0.02,,,0.02,VWS V14.01,2013-02-07 16:55:00,
2013-02-07 11:00:00,33.5,31.7,29.98,South,190,0.0,4.0,93,0.02,,,0.02,VWS V14.01,2013-02-07 17:00:00,
2013-02-07 11:05:00,33.5,31.7,29.98,South,178,0.0,8.0,93,0.02,,,0.02,VWS V14.01,2013-02-07 17:05:00,
2013-02-07 11:10:00,33.4,31.9,29.98,SSE,166,0.0,5.0,94,0.03,,,0.03,VWS V14.01,2013-02-07 17:10:00,
2013-02-07 11:15:00,33.5,32.0,29.98,South,186,6.0,7.0,94,0.03,,,0.03,VWS V14.01,2013-02-07 17:15:00,
2013-02-07 11:20:00,33.5,32.0,29.98,South,188,0.0,4.0,94,0.03,,,0.03,VWS V14.01,2013-02-07 17:20:00,
2013-02-07 11:25:00,33.6,32.1,29.97,South,188,0.0,7.0,94,0.03,,,0.03,VWS V14.01,2013-02-07 17:25:00,
2013-02-07 11:29:00,33.6,32.1,29.97,South,188,0.0,6.0,94,0.03,,,0.03,VWS V14.01,2013-02-07 17:29:00,
2013-02-07 11:30:00,33.6,32.1,29.97,South,188,0.0,6.0,94,0.03,,,0.03,VWS V14.01,2013-02-07 17:30:00,
2013-02-07 11:34:00,33.6,32.1,29.97,South,189,0.0,7.0,94,0.03,,,0.04,VWS V14.01,2013-02-07 17:34:00,
2013-02-07 11:35:00,33.6,32.1,29.97,South,189,0.0,7.0,94,0.03,,,0.04,VWS V14.01,2013-02-07 17:35:00,
2013-02-07 11:40:00,33.6,32.1,29.96,SSE,167,4.0,7.0,94,0.03,,,0.04,VWS V14.01,2013-02-07 17:40:00,
2013-02-07 11:45:00,33.6,32.1,29.96,SSE,162,0.0,6.0,94,0.04,,,0.05,VWS V14.01,2013-02-07 17:45:00,
2013-02-07 11:50:00,33.7,32.2,29.96,South,180,0.0,7.0,94,0.04,,,0.05,VWS V14.01,2013-02-07 17:50:00,
2013-02-07 11:55:00,33.7,32.2,29.96,SE,136,0.0,6.0,94,0.03,,,0.05,VWS V14.01,2013-02-07 17:55:00,
2013-02-07 12:00:00,33.7,32.2,29.95,South,182,4.0,7.0,94,0.03,,,0.05,VWS V14.01,2013-02-07 18:00:00,
2013-02-07 12:05:00,33.7,32.2,29.95,South,173,2.0,11.0,94,0.03,,,0.05,VWS V14.01,2013-02-07 18:05:00,
2013-02-07 12:10:00,33.6,32.1,29.95,South,178,4.0,10.0,94,0.03,,,0.06,VWS V14.01,2013-02-07 18:10:00,
2013-02-07 12:15:00,33.7,32.2,29.95,South,170,0.0,7.0,94,0.03,,,0.06,VWS V14.01,2013-02-07 18:15:00,
2013-02-07 12:20:00,33.8,32.3,29.95,South,173,0.0,5.0,94,0.03,,,0.06,VWS V14.01,2013-02-07 18:20:00,
2013-02-07 12:25:00,33.8,32.3,29.94,South,177,4.0,7.0,94,0.04,,,0.07,VWS V14.01,2013-02-07 18:25:00,
2013-02-07 12:26:00,33.8,32.3,29.94,South,182,0.0,5.0,94,0.04,,,0.07,VWS V14.01,2013-02-07 18:26:00,
2013-02-07 12:30:00,33.8,32.3,29.94,South,177,0.0,5.0,94,0.04,,,0.07,VWS V14.01,2013-02-07 18:30:00,
2013-02-07 12:31:00,33.8,32.3,29.94,South,178,0.0,5.0,94,0.04,,,0.07,VWS V14.01,2013-02-07 18:31:00,
2013-02-07 12:35:00,33.8,32.3,29.94,South,178,0.0,0.0,94,0.04,,,0.07,VWS V14.01,2013-02-07 18:35:00,
2013-02-07 12:36:00,33.9,32.4,29.94,South,184,0.0,1.0,94,0.03,,,0.07,VWS V14.01,2013-02-07 18:36:00,
2013-02-07 12:40:00,33.9,32.4,29.94,South,184,0.0,1.0,94,0.03,,,0.07,VWS V14.01,2013-02-07 18:40:00,
2013-02-07 12:45:00,33.8,32.3,29.94,SSE,160,0.0,0.0,94,0.03,,,0.07,VWS V14.01,2013-02-07 18:45:00,
2013-02-07 12:47:00,33.7,32.2,29.94,South,176,0.0,6.0,94,0.03,,,0.07,VWS V14.01,2013-02-07 18:47:00,
2013-02-07 12:50:00,33.8,32.3,29.94,South,176,0.0,5.0,94,0.03,,,0.07,VWS V14.01,2013-02-07 18:50:00,
2013-02-07 12:55:00,33.6,32.1,29.93,South,170,0.0,0.0,94,0.03,,,0.08,VWS V14.01,2013-02-07 18:55:00,
2013-02-07 13:00:00,33.6,32.1,29.93,SSE,165,0.0,0.0,94,0.03,,,0.08,VWS V14.01,2013-02-07 19:00:00,
2013-02-07 13:05:00,33.6,32.1,29.93,SSE,166,0.0,4.0,94,0.03,,,0.08,VWS V14.01,2013-02-07 19:05:00,
2013-02-07 13:06:00,33.6,32.1,29.93,SSE,165,0.0,4.0,94,0.03,,,0.08,VWS V14.01,2013-02-07 19:06:00,
2013-02-07 13:10:00,33.6,32.1,29.93,SSE,166,0.0,0.0,94,0.03,,,0.08,VWS V14.01,2013-02-07 19:10:00,
2013-02-07 13:11:00,33.6,32.1,29.93,SSE,166,0.0,0.0,94,0.02,,,0.08,VWS V14.01,2013-02-07 19:11:00,
2013-02-07 13:15:00,33.6,32.1,29.93,SSE,159,0.0,3.0,94,0.03,,,0.09,VWS V14.01,2013-02-07 19:15:00,
2013-02-07 13:16:00,33.5,32.0,29.93,SSE,158,0.0,3.0,94,0.03,,,0.09,VWS V14.01,2013-02-07 19:16:00,
2013-02-07 13:20:00,33.5,32.0,29.93,SSE,157,0.0,0.0,94,0.03,,,0.09,VWS V14.01,2013-02-07 19:20:00,
2013-02-07 13:25:00,33.5,32.0,29.92,SSE,159,0.0,0.0,94,0.03,,,0.09,VWS V14.01,2013-02-07 19:25:00,
2013-02-07 13:30:00,33.4,31.9,29.92,SSE,159,0.0,0.0,94,0.02,,,0.09,VWS V14.01,2013-02-07 19:30:00,
2013-02-07 13:34:00,33.3,31.8,29.92,SSE,159,0.0,0.0,94,0.02,,,0.09,VWS V14.01,2013-02-07 19:34:00,
2013-02-07 13:35:00,33.3,31.8,29.92,SSE,157,0.0,0.0,94,0.02,,,0.09,VWS V14.01,2013-02-07 19:35:00,
2013-02-07 13:39:00,33.2,31.7,29.92,SSE,159,0.0,0.0,94,0.02,,,0.09,VWS V14.01,2013-02-07 19:39:00,
2013-02-07 13:40:00,33.2,31.7,29.92,SSE,159,0.0,0.0,94,0.02,,,0.09,VWS V14.01,2013-02-07 19:40:00,
2013-02-07 13:44:00,33.0,31.5,29.91,SSE,158,0.0,0.0,94,0.02,,,0.09,VWS V14.01,2013-02-07 19:44:00,
2013-02-07 13:45:00,33.0,31.5,29.91,SSE,158,0.0,0.0,94,0.02,,,0.09,VWS V14.01,2013-02-07 19:45:00,
2013-02-07 13:49:00,33.0,31.5,29.91,SSE,159,0.0,0.0,94,0.02,,,0.09,VWS V14.01,2013-02-07 19:49:00,
2013-02-07 13:50:00,33.0,31.5,29.91,SSE,159,0.0,0.0,94,0.02,,,0.09,VWS V14.01,2013-02-07 19:50:00,
2013-02-07 13:54:00,32.9,31.6,29.91,SSE,159,0.0,0.0,95,0.02,,,0.09,VWS V14.01,2013-02-07 19:54:00,
2013-02-07 13:55:00,32.9,31.6,29.91,SSE,159,0.0,0.0,95,0.02,,,0.09,VWS V14.01,2013-02-07 19:55:00,
2013-02-07 13:59:00,32.9,31.6,29.91,SSE,158,0.0,0.0,95,0.02,,,0.10,VWS V14.01,2013-02-07 19:59:00,
2013-02-07 14:00:00,32.9,31.6,29.91,SSE,158,0.0,0.0,95,0.02,,,0.10,VWS V14.01,2013-02-07 20:00:00,
2013-02-07 14:05:00,32.8,31.5,29.90,SSE,157,0.0,0.0,95,0.02,,,0.10,VWS V14.01,2013-02-07 20:05:00,
2013-02-07 14:10:00,32.8,31.5,29.90,SSE,159,0.0,0.0,95,0.02,,,0.10,VWS V14.01,2013-02-07 20:10:00,
2013-02-07 14:15:00,32.8,31.5,29.90,SSE,158,0.0,0.0,95,0.01,,,0.10,VWS V14.01,2013-02-07 20:15:00,
2013-02-07 14:20:00,32.8,31.5,29.89,SSE,159,0.0,0.0,95,0.01,,,0.10,VWS V14.01,2013-02-07 20:20:00,
2013-02-07 14:25:00,32.7,31.4,29.90,ESE,119,0.0,0.0,95,0.01,,,0.10,VWS V14.01,2013-02-07 20:25:00,
2013-02-07 14:30:00,32.7,31.4,29.89,ESE,119,0.0,0.0,95,0.01,,,0.10,VWS V14.01,2013-02-07 20:30:00,
2013-02-07 14:31:00,32.7,31.4,29.90,ESE,119,0.0,0.0,95,0.01,,,0.10,VWS V14.01,2013-02-07 20:31:00,
2013-02-07 14:35:00,32.7,31.4,29.89,ESE,119,0.0,0.0,95,0.01,,,0.10,VWS V14.01,2013-02-07 20:35:00,
2013-02-07 14:36:00,32.7,31.4,29.90,ESE,118,0.0,0.0,95,0.01,,,0.10,VWS V14.01,2013-02-07 20:36:00,
2013-02-07 14:40:00,32.7,31.4,29.90,ESE,119,0.0,0.0,95,0.01,,,0.10,VWS V14.01,2013-02-07 20:40:00,
2013-02-07 14:41:00,32.7,31.4,29.90,ESE,119,0.0,0.0,95,0.01,,,0.10,VWS V14.01,2013-02-07 20:41:00,
2013-02-07 14:45:00,32.7,31.4,29.90,NE,49,0.0,0.0,95,0.01,,,0.10,VWS V14.01,2013-02-07 20:45:00,
2013-02-07 14:46:00,32.7,31.4,29.89,NE,34,0.0,0.0,95,0.01,,,0.10,VWS V14.01,2013-02-07 20:46:00,
2013-02-07 14:50:00,32.7,31.4,29.89,NE,35,0.0,0.0,95,0.02,,,0.11,VWS V14.01,2013-02-07 20:50:00,
2013-02-07 14:51:00,32.7,31.4,29.89,NE,36,0.0,0.0,95,0.02,,,0.11,VWS V14.01,2013-02-07 20:51:00,
2013-02-07 14:55:00,32.6,31.6,29.88,NNE,19,0.0,0.0,96,0.00,,FEW070,0.11,VWS V14.01,2013-02-07 20:55:00,
2013-02-07 14:56:00,32.6,31.3,29.89,NNE,32,0.0,0.0,95,0.02,,,0.11,VWS V14.01,2013-02-07 20:56:00,
2013-02-07 15:00:00,32.6,31.6,29.87,NNE,28,0.0,0.0,96,0.00,,FEW070,0.11,VWS V14.01,2013-02-07 21:00:00,
2013-02-07 15:01:00,32.6,31.3,29.89,NNE,23,0.0,0.0,95,0.01,,,0.11,VWS V14.01,2013-02-07 21:01:00,
2013-02-07 15:05:00,32.6,31.3,29.89,NNE,22,0.0,0.0,95,0.01,,,0.11,VWS V14.01,2013-02-07 21:05:00,
2013-02-07 15:06:00,32.6,31.6,29.89,NNE,16,0.0,0.0,96,0.01,,,0.11,VWS V14.01,2013-02-07 21:06:00,
2013-02-07 15:10:00,32.6,31.6,29.89,NE,39,0.0,0.0,96,0.01,,,0.11,VWS V14.01,2013-02-07 21:10:00,
2013-02-07 15:11:00,32.6,31.6,29.89,NE,38,0.0,0.0,96,0.01,,,0.11,VWS V14.01,2013-02-07 21:11:00,
2013-02-07 15:15:00,32.6,31.6,29.88,NNE,32,0.0,0.0,96,0.01,,,0.11,VWS V14.01,2013-02-07 21:15:00,
2013-02-07 15:16:00,32.6,31.6,29.88,NE,41,0.0,0.0,96,0.01,,,0.11,VWS V14.01,2013-02-07 21:16:00,
2013-02-07 15:20:00,32.6,31.6,29.88,NNE,26,0.0,0.0,96,0.01,,,0.11,VWS V14.01,2013-02-07 21:20:00,
2013-02-07 15:21:00,32.6,31.6,29.88,NE,46,0.0,0.0,96,0.01,,,0.11,VWS V14.01,2013-02-07 21:21:00,
2013-02-07 15:25:00,32.6,31.6,29.88,NNE,28,0.0,0.0,96,0.01,,,0.11,VWS V14.01,2013-02-07 21:25:00,
2013-02-07 15:26:00,32.6,31.6,29.88,NNE,24,0.0,0.0,96,0.01,,,0.11,VWS V14.01,2013-02-07 21:26:00,
2013-02-07 15:30:00,32.6,31.6,29.88,NNE,16,0.0,0.0,96,0.01,,,0.11,VWS V14.01,2013-02-07 21:30:00,
2013-02-07 15:31:00,32.6,31.6,29.88,North,5,0.0,0.0,96,0.01,,,0.11,VWS V14.01,2013-02-07 21:31:00,
2013-02-07 15:35:00,32.6,31.6,29.87,NE,34,0.0,0.0,96,0.01,,,0.11,VWS V14.01,2013-02-07 21:35:00,
2013-02-07 15:36:00,32.6,31.6,29.88,NNE,30,0.0,0.0,96,0.01,,,0.11,VWS V14.01,2013-02-07 21:36:00,
2013-02-07 15:40:00,32.5,31.5,29.88,NNE,17,0.0,0.0,96,0.01,,,0.11,VWS V14.01,2013-02-07 21:40:00,
2013-02-07 15:42:00,32.5,31.5,29.88,NE,36,0.0,0.0,96,0.01,,,0.11,VWS V14.01,2013-02-07 21:42:00,
2013-02-07 15:45:00,32.5,31.5,29.88,NNE,14,0.0,0.0,96,0.01,,,0.11,VWS V14.01,2013-02-07 21:45:00,
2013-02-07 15:47:00,32.5,31.5,29.88,North,5,0.0,0.0,96,0.01,,,0.11,VWS V14.01,2013-02-07 21:47:00,
2013-02-07 15:50:00,32.6,31.6,29.87,NNE,13,0.0,0.0,96,0.01,,,0.11,VWS V14.01,2013-02-07 21:50:00,
2013-02-07 15:52:00,32.6,31.6,29.88,NNE,19,0.0,0.0,96,0.00,,,0.11,VWS V14.01,2013-02-07 21:52:00,
2013-02-07 15:55:00,32.6,31.6,29.88,NNE,19,0.0,0.0,96,0.00,,,0.11,VWS V14.01,2013-02-07 21:55:00,
2013-02-07 15:57:00,32.6,31.6,29.87,NNE,24,0.0,0.0,96,0.00,,,0.11,VWS V14.01,2013-02-07 21:57:00,
2013-02-07 16:00:00,32.6,31.6,29.87,NNE,28,0.0,0.0,96,0.00,,,0.11,VWS V14.01,2013-02-07 22:00:00,
2013-02-07 16:02:00,32.6,31.6,29.87,NNE,30,0.0,0.0,96,0.00,,,0.11,VWS V14.01,2013-02-07 22:02:00,
2013-02-07 16:05:00,32.6,31.6,29.87,NE,46,0.0,0.0,96,0.00,,,0.11,VWS V14.01,2013-02-07 22:05:00,
2013-02-07 16:07:00,32.5,31.5,29.87,NNE,32,0.0,0.0,96,0.00,,,0.11,VWS V14.01,2013-02-07 22:07:00,
2013-02-07 16:10:00,32.5,31.5,29.87,NNE,22,0.0,0.0,96,0.00,,,0.11,VWS V14.01,2013-02-07 22:10:00,
2013-02-07 16:12:00,32.5,31.5,29.87,NNE,22,0.0,0.0,96,0.00,,,0.11,VWS V14.01,2013-02-07 22:12:00,
2013-02-07 16:15:00,32.5,31.5,29.87,NE,41,0.0,0.0,96,0.00,,,0.11,VWS V14.01,2013-02-07 22:15:00,
2013-02-07 16:17:00,32.5,31.5,29.87,NNE,26,0.0,0.0,96,0.00,,,0.11,VWS V14.01,2013-02-07 22:17:00,
2013-02-07 16:20:00,32.5,31.5,29.87,NNE,32,0.0,0.0,96,0.00,,,0.11,VWS V14.01,2013-02-07 22:20:00,
2013-02-07 16:22:00,32.5,31.5,29.87,NE,36,0.0,0.0,96,0.00,,,0.11,VWS V14.01,2013-02-07 22:22:00,
2013-02-07 16:25:00,32.5,31.5,29.87,NNE,24,0.0,0.0,96,0.00,,,0.11,VWS V14.01,2013-02-07 22:25:00,
2013-02-07 16:27:00,32.5,31.5,29.87,NNE,29,0.0,0.0,96,0.00,,,0.11,VWS V14.01,2013-02-07 22:27:00,
2013-02-07 16:30:00,32.5,31.5,29.87,NE,38,0.0,0.0,96,0.00,,,0.11,VWS V14.01,2013-02-07 22:30:00,
2013-02-07 16:32:00,32.5,31.5,29.87,NE,37,0.0,0.0,96,0.00,,,0.11,VWS V14.01,2013-02-07 22:32:00,
2013-02-07 16:35:00,32.5,31.5,29.87,North,360,0.0,0.0,96,0.00,,,0.11,VWS V14.01,2013-02-07 22:35:00,
2013-02-07 16:38:00,32.5,31.5,29.87,NNE,15,0.0,0.0,96,0.00,,,0.11,VWS V14.01,2013-02-07 22:38:00,
2013-02-07 16:40:00,32.5,31.5,29.87,NNE,24,0.0,0.0,96,0.00,,,0.11,VWS V14.01,2013-02-07 22:40:00,
2013-02-07 16:43:00,32.5,31.5,29.87,NNE,15,0.0,0.0,96,0.00,,,0.11,VWS V14.01,2013-02-07 22:43:00,
2013-02-07 16:45:00,32.5,31.5,29.87,ENE,58,0.0,0.0,96,0.00,,,0.11,VWS V14.01,2013-02-07 22:45:00,
2013-02-07 16:48:00,32.5,31.5,29.87,NNE,24,0.0,0.0,96,0.00,,,0.11,VWS V14.01,2013-02-07 22:48:00,
2013-02-07 16:50:00,32.5,31.5,29.87,North,9,0.0,0.0,96,0.00,,,0.11,VWS V14.01,2013-02-07 22:50:00,
2013-02-07 16:53:00,32.5,31.5,29.87,North,5,0.0,0.0,96,0.00,,,0.11,VWS V14.01,2013-02-07 22:53:00,
2013-02-07 16:55:00,32.5,31.5,29.87,NNE,16,0.0,0.0,96,0.00,,,0.11,VWS V14.01,2013-02-07 22:55:00,
2013-02-07 16:58:00,32.5,31.5,29.87,North,5,0.0,0.0,96,0.00,,,0.11,VWS V14.01,2013-02-07 22:58:00,
2013-02-07 17:00:00,32.6,31.6,29.87,NNE,19,0.0,0.0,96,0.00,,,0.11,VWS V14.01,2013-02-07 23:00:00,
2013-02-07 17:03:00,32.5,31.5,29.87,NNE,30,0.0,0.0,96,0.00,,,0.11,VWS V14.01,2013-02-07 23:03:00,
2013-02-07 17:05:00,32.5,31.5,29.87,NNE,24,0.0,0.0,96,0.00,,,0.11,VWS V14.01,2013-02-07 23:05:00,
2013-02-07 17:08:00,32.5,31.5,29.87,NNE,26,0.0,0.0,96,0.00,,,0.11,VWS V14.01,2013-02-07 23:08:00,
2013-02-07 17:10:00,32.5,31.5,29.88,NE,40,0.0,0.0,96,0.00,,,0.11,VWS V14.01,2013-02-07 23:10:00,
2013-02-07 17:13:00,32.5,31.5,29.88,ENE,67,0.0,0.0,96,0.00,,,0.11,VWS V14.01,2013-02-07 23:13:00,
2013-02-07 17:15:00,32.5,31.5,29.88,NE,44,0.0,0.0,96,0.00,,,0.11,VWS V14.01,2013-02-07 23:15:00,
2013-02-07 17:18:00,32.5,31.5,29.88,North,11,0.0,0.0,96,0.00,,,0.11,VWS V14.01,2013-02-07 23:18:00,
2013-02-07 17:20:00,32.5,31.5,29.88,NE,51,0.0,0.0,96,0.00,,,0.11,VWS V14.01,2013-02-07 23:20:00,
2013-02-07 17:23:00,32.5,31.7,29.88,NNE,22,0.0,0.0,97,0.00,,,0.11,VWS V14.01,2013-02-07 23:23:00,
2013-02-07 17:25:00,32.5,31.8,29.88,NNE,32,0.0,0.0,97,0.00,,,0.11,VWS V14.01,2013-02-07 23:25:00,
2013-02-07 17:28:00,32.5,31.5,29.88,NE,36,0.0,0.0,96,0.00,,,0.11,VWS V14.01,2013-02-07 23:28:00,
2013-02-07 17:30:00,32.5,31.8,29.88,NE,42,0.0,0.0,97,0.00,,,0.11,VWS V14.01,2013-02-07 23:30:00,
2013-02-07 17:33:00,32.5,31.5,29.88,NNE,28,0.0,0.0,96,0.00,,,0.11,VWS V14.01,2013-02-07 23:33:00,
2013-02-07 17:35:00,32.5,31.5,29.88,NNE,28,0.0,0.0,96,0.00,,,0.11,VWS V14.01,2013-02-07 23:35:00,
2013-02-07 17:38:00,32.4,31.4,29.88,NE,34,0.0,0.0,96,0.00,,,0.11,VWS V14.01,2013-02-07 23:38:00,
2013-02-07 17:40:00,32.4,31.4,29.88,NE,44,0.0,0.0,96,0.00,,,0.11,VWS V14.01,2013-02-07 23:40:00,
2013-02-07 17:44:00,32.4,31.4,29.88,NE,44,0.0,0.0,96,0.00,,,0.11,VWS V14.01,2013-02-07 23:44:00,
2013-02-07 17:45:00,32.4,31.4,29.88,NE,51,0.0,0.0,96,0.00,,,0.11,VWS V14.01,2013-02-07 23:45:00,
2013-02-07 17:49:00,32.4,31.4,29.89,NE,38,0.0,0.0,96,0.00,,,0.11,VWS V14.01,2013-02-07 23:49:00,
2013-02-07 17:50:00,32.4,31.4,29.89,NNE,19,0.0,0.0,96,0.00,,,0.11,VWS V14.01,2013-02-07 23:50:00,
2013-02-07 17:54:00,32.5,31.5,29.89,NNE,25,0.0,0.0,96,0.00,,,0.11,VWS V14.01,2013-02-07 23:54:00,
2013-02-07 17:55:00,32.4,31.4,29.89,NNE,13,0.0,0.0,96,0.00,,,0.11,VWS V14.01,2013-02-07 23:55:00,
2013-02-07 17:59:00,32.4,31.6,29.89,NE,35,0.0,0.0,97,0.00,,,0.11,VWS V14.01,2013-02-07 23:59:00,
2013-02-07 18:00:00,32.4,31.6,29.89,NNW,344,0.0,0.0,97,0.00,,,0.11,VWS V14.01,2013-02-08 00:00:00,
2013-02-07 18:04:00,32.4,31.6,29.89,North,5,0.0,0.0,97,0.00,,,0.11,VWS V14.01,2013-02-08 00:04:00,
2013-02-07 18:05:00,32.4,31.6,29.89,NNE,26,0.0,0.0,97,0.00,,,0.11,VWS V14.01,2013-02-08 00:05:00,
2013-02-07 18:09:00,32.5,31.7,29.90,NNE,28,0.0,0.0,97,0.00,,,0.11,VWS V14.01,2013-02-08 00:09:00,
2013-02-07 18:10:00,32.5,31.8,29.90,NNE,26,0.0,0.0,97,0.00,,,0.11,VWS V14.01,2013-02-08 00:10:00,
2013-02-07 18:14:00,32.5,31.7,29.90,NNE,24,0.0,0.0,97,0.00,,,0.11,VWS V14.01,2013-02-08 00:14:00,
2013-02-07 18:15:00,32.5,31.8,29.90,NNE,24,0.0,0.0,97,0.00,,,0.11,VWS V14.01,2013-02-08 00:15:00,
2013-02-07 18:19:00,32.5,31.7,29.90,NNE,24,0.0,0.0,97,0.00,,,0.11,VWS V14.01,2013-02-08 00:19:00,
2013-02-07 18:20:00,32.5,31.8,29.90,NNE,23,0.0,0.0,97,0.00,,,0.11,VWS V14.01,2013-02-08 00:20:00,
2013-02-07 18:24:00,32.5,31.7,29.90,NNE,28,0.0,0.0,97,0.00,,,0.11,VWS V14.01,2013-02-08 00:24:00,
2013-02-07 18:25:00,32.5,31.8,29.90,NNE,23,0.0,0.0,97,0.00,,,0.11,VWS V14.01,2013-02-08 00:25:00,
2013-02-07 18:29:00,32.5,31.7,29.90,North,355,0.0,0.0,97,0.00,,,0.11,VWS V14.01,2013-02-08 00:29:00,
2013-02-07 18:30:00,32.5,31.8,29.90,West,271,0.0,0.0,97,0.00,,,0.11,VWS V14.01,2013-02-08 00:30:00,
2013-02-07 18:34:00,32.5,31.7,29.90,NNE,33,0.0,0.0,97,0.00,,,0.11,VWS V14.01,2013-02-08 00:34:00,
2013-02-07 18:35:00,32.5,31.8,29.90,NNE,33,0.0,0.0,97,0.00,,,0.11,VWS V14.01,2013-02-08 00:35:00,
2013-02-07 18:39:00,32.5,31.7,29.90,NNE,17,0.0,0.0,97,0.00,,,0.11,VWS V14.01,2013-02-08 00:39:00,
2013-02-07 18:40:00,32.5,31.8,29.90,NNE,17,0.0,0.0,97,0.00,,,0.11,VWS V14.01,2013-02-08 00:40:00,
2013-02-07 18:44:00,32.4,31.6,29.90,NNE,28,0.0,0.0,97,0.00,,,0.11,VWS V14.01,2013-02-08 00:44:00,
2013-02-07 18:45:00,32.4,31.6,29.90,NNE,28,0.0,0.0,97,0.00,,,0.11,VWS V14.01,2013-02-08 00:45:00,
2013-02-07 18:49:00,32.4,31.6,29.90,NNE,29,0.0,0.0,97,0.00,,,0.11,VWS V14.01,2013-02-08 00:49:00,
2013-02-07 18:50:00,32.4,31.6,29.90,NNE,29,0.0,0.0,97,0.00,,,0.11,VWS V14.01,2013-02-08 00:50:00,
2013-02-07 18:54:00,32.4,31.6,29.90,NNE,30,0.0,0.0,97,0.00,,,0.11,VWS V14.01,2013-02-08 00:54:00,
2013-02-07 18:55:00,32.4,31.6,29.90,NNE,30,0.0,0.0,97,0.00,,,0.11,VWS V14.01,2013-02-08 00:55:00,
2013-02-07 18:59:00,32.4,31.6,29.90,NE,38,0.0,0.0,97,0.00,,,0.11,VWS V14.01,2013-02-08 00:59:00,
2013-02-07 19:00:00,32.4,31.6,29.90,NE,38,0.0,0.0,97,0.00,,,0.11,VWS V14.01,2013-02-08 01:00:00,
2013-02-07 19:04:00,32.4,31.6,29.90,North,11,0.0,0.0,97,0.00,,,0.11,VWS V14.01,2013-02-08 01:04:00,
2013-02-07 19:05:00,32.4,31.6,29.90,North,11,0.0,0.0,97,0.00,,,0.11,VWS V14.01,2013-02-08 01:05:00,
2013-02-07 19:09:00,32.4,31.6,29.90,NNW,340,0.0,0.0,97,0.00,,,0.11,VWS V14.01,2013-02-08 01:09:00,
2013-02-07 19:10:00,32.4,31.6,29.90,NNW,340,0.0,0.0,97,0.00,,,0.11,VWS V14.01,2013-02-08 01:10:00,
2013-02-07 19:14:00,32.4,31.6,29.90,North,10,0.0,0.0,97,0.00,,,0.11,VWS V14.01,2013-02-08 01:14:00,
2013-02-07 19:15:00,32.4,31.6,29.90,North,10,0.0,0.0,97,0.00,,,0.11,VWS V14.01,2013-02-08 01:15:00,
2013-02-07 19:19:00,32.4,31.6,29.90,NNW,348,0.0,0.0,97,0.00,,,0.11,VWS V14.01,2013-02-08 01:19:00,
2013-02-07 19:20:00,32.4,31.6,29.90,NNW,348,0.0,0.0,97,0.00,,,0.11,VWS V14.01,2013-02-08 01:20:00,
2013-02-07 19:24:00,32.4,31.6,29.90,NNE,28,0.0,0.0,97,0.00,,,0.11,VWS V14.01,2013-02-08 01:24:00,
2013-02-07 19:25:00,32.4,31.6,29.90,NNE,28,0.0,0.0,97,0.00,,,0.11,VWS V14.01,2013-02-08 01:25:00,
2013-02-07 19:29:00,32.4,31.6,29.90,NNE,24,0.0,0.0,97,0.00,,,0.11,VWS V14.01,2013-02-08 01:29:00,
2013-02-07 19:30:00,32.4,31.6,29.90,NNE,24,0.0,0.0,97,0.00,,,0.11,VWS V14.01,2013-02-08 01:30:00,
2013-02-07 19:34:00,32.4,31.6,29.90,NNW,332,0.0,0.0,97,0.00,,,0.11,VWS V14.01,2013-02-08 01:34:00,
2013-02-07 19:35:00,32.4,31.6,29.90,NNW,332,0.0,0.0,97,0.00,,,0.11,VWS V14.01,2013-02-08 01:35:00,
2013-02-07 19:39:00,32.4,31.6,29.90,NE,37,0.0,0.0,97,0.00,,,0.11,VWS V14.01,2013-02-08 01:39:00,
2013-02-07 19:40:00,32.4,31.6,29.90,NE,37,0.0,0.0,97,0.00,,,0.11,VWS V14.01,2013-02-08 01:40:00,
2013-02-07 19:44:00,32.4,31.6,29.90,NNE,20,0.0,0.0,97,0.00,,,0.11,VWS V14.01,2013-02-08 01:44:00,
2013-02-07 19:45:00,32.4,31.6,29.90,NNE,20,0.0,0.0,97,0.00,,,0.11,VWS V14.01,2013-02-08 01:45:00,
2013-02-07 19:49:00,32.3,31.5,29.90,North,360,0.0,0.0,97,0.00,,,0.11,VWS V14.01,2013-02-08 01:49:00,
2013-02-07 19:50:00,32.3,31.5,29.90,North,360,0.0,0.0,97,0.00,,,0.11,VWS V14.01,2013-02-08 01:50:00,
2013-02-07 19:54:00,32.4,31.6,29.91,NNE,12,0.0,0.0,97,0.00,,,0.11,VWS V14.01,2013-02-08 01:54:00,
2013-02-07 19:55:00,32.4,31.6,29.91,NNE,12,0.0,0.0,97,0.00,,,0.11,VWS V14.01,2013-02-08 01:55:00,
2013-02-07 19:59:00,32.3,31.5,29.91,North,9,0.0,0.0,97,0.00,,,0.11,VWS V14.01,2013-02-08 01:59:00,
2013-02-07 20:00:00,32.3,31.5,29.91,North,9,0.0,0.0,97,0.00,,,0.11,VWS V14.01,2013-02-08 02:00:00,
2013-02-07 20:04:00,32.3,31.5,29.91,North,360,0.0,0.0,97,0.00,,,0.11,VWS V14.01,2013-02-08 02:04:00,
2013-02-07 20:05:00,32.3,31.5,29.91,North,360,0.0,0.0,97,0.00,,,0.11,VWS V14.01,2013-02-08 02:05:00,
2013-02-07 20:09:00,32.3,31.5,29.91,NE,34,0.0,0.0,97,0.00,,,0.11,VWS V14.01,2013-02-08 02:09:00,
2013-02-07 20:10:00,32.3,31.5,29.91,NE,34,0.0,0.0,97,0.00,,,0.11,VWS V14.01,2013-02-08 02:10:00,
2013-02-07 20:14:00,32.2,31.5,29.91,NNE,26,0.0,0.0,97,0.00,,,0.11,VWS V14.01,2013-02-08 02:14:00,
2013-02-07 20:15:00,32.2,31.5,29.91,NNE,26,0.0,0.0,97,0.00,,,0.11,VWS V14.01,2013-02-08 02:15:00,
2013-02-07 20:19:00,32.2,31.5,29.91,North,10,0.0,0.0,97,0.00,,,0.11,VWS V14.01,2013-02-08 02:19:00,
2013-02-07 20:20:00,32.2,31.5,29.91,North,10,0.0,0.0,97,0.00,,,0.11,VWS V14.01,2013-02-08 02:20:00,
2013-02-07 20:24:00,32.2,31.5,29.91,NNW,342,0.0,0.0,97,0.00,,,0.11,VWS V14.01,2013-02-08 02:24:00,
2013-02-07 20:25:00,32.2,31.5,29.91,NNW,342,0.0,0.0,97,0.00,,,0.11,VWS V14.01,2013-02-08 02:25:00,
2013-02-07 20:29:00,32.2,31.5,29.91,NNE,30,0.0,0.0,97,0.00,,,0.11,VWS V14.01,2013-02-08 02:29:00,
2013-02-07 20:30:00,32.2,31.5,29.91,NNE,30,0.0,0.0,97,0.00,,,0.11,VWS V14.01,2013-02-08 02:30:00,
2013-02-07 20:35:00,32.1,31.4,29.92,NNE,30,0.0,0.0,97,0.00,,,0.11,VWS V14.01,2013-02-08 02:35:00,
2013-02-07 20:40:00,32.0,31.2,29.92,NW,313,0.0,0.0,97,0.00,,,0.11,VWS V14.01,2013-02-08 02:40:00,
2013-02-07 20:45:00,32.0,31.2,29.92,North,360,0.0,0.0,97,0.01,,,0.12,VWS V14.01,2013-02-08 02:45:00,
2013-02-07 20:50:00,32.0,31.2,29.92,North,360,0.0,0.0,97,0.01,,,0.12,VWS V14.01,2013-02-08 02:50:00,
2013-02-07 20:55:00,32.0,31.2,29.92,NNE,18,0.0,0.0,97,0.01,,,0.12,VWS V14.01,2013-02-08 02:55:00,
2013-02-07 21:00:00,32.0,31.2,29.92,North,360,0.0,0.0,97,0.01,,,0.12,VWS V14.01,2013-02-08 03:00:00,
2013-02-07 21:05:00,31.4,30.6,29.93,North,350,0.0,0.0,97,0.01,,,0.12,VWS V14.01,2013-02-08 03:05:00,
2013-02-07 21:10:00,30.6,29.9,29.93,NNW,338,0.0,0.0,97,0.01,,,0.12,VWS V14.01,2013-02-08 03:10:00,
2013-02-07 21:15:00,30.1,29.1,29.92,North,360,0.0,0.0,96,0.01,,,0.12,VWS V14.01,2013-02-08 03:15:00,
2013-02-07 21:16:00,29.9,28.9,29.92,NNE,24,0.0,0.0,96,0.01,,,0.12,VWS V14.01,2013-02-08 03:16:00,
2013-02-07 21:20:00,29.4,28.4,29.92,NNW,348,0.0,0.0,96,0.01,,,0.12,VWS V14.01,2013-02-08 03:20:00,
2013-02-07 21:21:00,29.3,28.3,29.92,North,355,0.0,0.0,96,0.01,,,0.12,VWS V14.01,2013-02-08 03:21:00,
2013-02-07 21:25:00,29.0,28.3,29.92,North,360,0.0,0.0,97,0.01,,,0.12,VWS V14.01,2013-02-08 03:25:00,
2013-02-07 21:26:00,28.9,27.9,29.93,NW,319,0.0,0.0,96,0.01,,,0.12,VWS V14.01,2013-02-08 03:26:00,
2013-02-07 21:30:00,28.6,27.9,29.93,NE,41,0.0,0.0,97,0.01,,,0.12,VWS V14.01,2013-02-08 03:30:00,
2013-02-07 21:31:00,28.5,27.5,29.93,North,360,0.0,0.0,96,0.01,,,0.12,VWS V14.01,2013-02-08 03:31:00,
2013-02-07 21:35:00,28.3,27.3,29.93,NNE,16,0.0,0.0,96,0.01,,,0.12,VWS V14.01,2013-02-08 03:35:00,
2013-02-07 21:36:00,28.1,27.4,29.93,North,360,0.0,0.0,97,0.01,,,0.12,VWS V14.01,2013-02-08 03:36:00,
2013-02-07 21:40:00,27.3,26.3,29.93,North,360,0.0,0.0,96,0.01,,,0.12,VWS V14.01,2013-02-08 03:40:00,
2013-02-07 21:41:00,27.0,26.0,29.93,NNW,345,0.0,0.0,96,0.01,,,0.12,VWS V14.01,2013-02-08 03:41:00,
2013-02-07 21:45:00,26.6,25.6,29.94,NNE,22,0.0,0.0,96,0.01,,,0.12,VWS V14.01,2013-02-08 03:45:00,
2013-02-07 21:46:00,26.5,25.5,29.94,NW,315,0.0,0.0,96,0.00,,,0.12,VWS V14.01,2013-02-08 03:46:00,
2013-02-07 21:50:00,26.3,25.3,29.94,North,360,0.0,0.0,96,0.00,,,0.12,VWS V14.01,2013-02-08 03:50:00,
2013-02-07 21:51:00,26.3,25.3,29.94,North,351,0.0,0.0,96,0.00,,,0.12,VWS V14.01,2013-02-08 03:51:00,
2013-02-07 21:55:00,26.3,25.3,29.94,North,360,0.0,0.0,96,0.00,,,0.12,VWS V14.01,2013-02-08 03:55:00,
2013-02-07 21:56:00,26.2,25.2,29.94,North,360,0.0,0.0,96,0.00,,,0.12,VWS V14.01,2013-02-08 03:56:00,
2013-02-07 22:00:00,26.1,25.1,29.94,NNW,339,0.0,0.0,96,0.00,,,0.12,VWS V14.01,2013-02-08 04:00:00,
2013-02-07 22:01:00,26.0,25.0,29.94,NNW,333,0.0,0.0,96,0.00,,,0.12,VWS V14.01,2013-02-08 04:01:00,
2013-02-07 22:05:00,25.8,24.8,29.94,NNW,347,0.0,0.0,96,0.00,,,0.12,VWS V14.01,2013-02-08 04:05:00,
2013-02-07 22:06:00,25.6,24.6,29.94,North,5,0.0,0.0,96,0.00,,,0.12,VWS V14.01,2013-02-08 04:06:00,
2013-02-07 22:10:00,25.5,24.5,29.94,NNW,348,0.0,0.0,96,0.00,,,0.12,VWS V14.01,2013-02-08 04:10:00,
2013-02-07 22:11:00,25.4,24.4,29.94,North,360,0.0,0.0,96,0.00,,,0.12,VWS V14.01,2013-02-08 04:11:00,
2013-02-07 22:15:00,25.4,24.4,29.94,North,355,0.0,0.0,96,0.00,,,0.12,VWS V14.01,2013-02-08 04:15:00,
2013-02-07 22:16:00,25.4,24.4,29.95,NNW,341,0.0,0.0,96,0.00,,,0.12,VWS V14.01,2013-02-08 04:16:00,
2013-02-07 22:20:00,24.4,23.2,29.96,NNW,345,0.0,0.0,95,0.00,,FEW070,0.12,VWS V14.01,2013-02-08 04:20:00,
2013-02-07 22:21:00,25.3,24.1,29.95,NNW,345,0.0,0.0,95,0.00,,,0.12,VWS V14.01,2013-02-08 04:21:00,
2013-02-07 22:25:00,25.2,24.2,29.95,North,11,0.0,0.0,96,0.00,,,0.12,VWS V14.01,2013-02-08 04:25:00,
2013-02-07 22:27:00,25.2,24.2,29.95,NNW,328,0.0,0.0,96,0.00,,,0.12,VWS V14.01,2013-02-08 04:27:00,
2013-02-07 22:30:00,24.1,22.9,29.96,NNW,335,0.0,0.0,95,0.00,,FEW070,0.12,VWS V14.01,2013-02-08 04:30:00,
2013-02-07 22:32:00,25.2,24.2,29.95,NNW,328,0.0,0.0,96,0.00,,,0.12,VWS V14.01,2013-02-08 04:32:00,
2013-02-07 22:35:00,25.1,24.1,29.95,NNW,332,0.0,0.0,96,0.00,,,0.12,VWS V14.01,2013-02-08 04:35:00,
2013-02-07 22:37:00,25.0,23.8,29.95,NNW,331,0.0,0.0,95,0.00,,,0.12,VWS V14.01,2013-02-08 04:37:00,
2013-02-07 22:40:00,24.9,23.7,29.95,NE,34,0.0,0.0,95,0.00,,,0.12,VWS V14.01,2013-02-08 04:40:00,
2013-02-07 22:42:00,24.9,23.7,29.95,NNE,13,0.0,0.0,95,0.00,,,0.12,VWS V14.01,2013-02-08 04:42:00,
2013-02-07 22:45:00,23.9,22.7,29.97,WNW,303,0.0,0.0,95,0.00,,FEW070,0.12,VWS V14.01,2013-02-08 04:45:00,
2013-02-07 22:47:00,24.8,23.6,29.95,NNE,17,0.0,0.0,95,0.00,,,0.12,VWS V14.01,2013-02-08 04:47:00,
2013-02-07 22:50:00,23.9,22.7,29.97,NW,319,0.0,0.0,95,0.00,,FEW070,0.12,VWS V14.01,2013-02-08 04:50:00,
2013-02-07 22:52:00,24.8,23.6,29.95,NNW,347,0.0,0.0,95,0.00,,,0.12,VWS V14.01,2013-02-08 04:52:00,
2013-02-07 22:55:00,23.9,22.7,29.97,North,360,0.0,0.0,95,0.00,,FEW070,0.12,VWS V14.01,2013-02-08 04:55:00,
2013-02-07 22:57:00,24.9,23.7,29.95,NNW,348,0.0,0.0,95,0.00,,,0.12,VWS V14.01,2013-02-08 04:57:00,
2013-02-07 23:00:00,24.9,23.7,29.95,NNW,332,0.0,0.0,95,0.00,,,0.12,VWS V14.01,2013-02-08 05:00:00,
2013-02-07 23:01:00,24.8,23.6,29.96,North,360,0.0,0.0,95,0.00,,,0.12,VWS V14.01,2013-02-08 05:01:00,
2013-02-07 23:03:00,24.8,23.6,29.95,NNW,329,0.0,0.0,95,0.00,,,0.12,VWS V14.01,2013-02-08 05:03:00,
2013-02-07 23:04:00,24.8,23.6,29.95,North,349,0.0,0.0,95,0.00,,,0.12,VWS V14.01,2013-02-08 05:04:00,
2013-02-07 23:05:00,24.0,22.8,29.97,North,355,0.0,0.0,95,0.00,,FEW070,0.00,VWS V14.01,2013-02-08 05:05:00,
2013-02-07 23:09:00,24.7,23.5,29.96,NNW,327,0.0,0.0,95,0.00,,,0.12,VWS V14.01,2013-02-08 05:09:00,
2013-02-07 23:10:00,24.7,23.5,29.96,NNW,327,0.0,0.0,95,0.00,,,0.12,VWS V14.01,2013-02-08 05:10:00,
2013-02-07 23:14:00,24.5,23.3,29.96,North,360,0.0,0.0,95,0.00,,,0.12,VWS V14.01,2013-02-08 05:14:00,
2013-02-07 23:15:00,24.5,23.3,29.96,North,360,0.0,0.0,95,0.00,,,0.12,VWS V14.01,2013-02-08 05:15:00,
2013-02-07 23:19:00,24.4,23.2,29.96,NNW,345,0.0,0.0,95,0.00,,,0.12,VWS V14.01,2013-02-08 05:19:00,
2013-02-07 23:20:00,24.4,23.2,29.96,NNW,345,0.0,0.0,95,0.00,,,0.12,VWS V14.01,2013-02-08 05:20:00,
2013-02-07 23:24:00,24.3,23.1,29.96,NW,324,0.0,0.0,95,0.00,,,0.12,VWS V14.01,2013-02-08 05:24:00,
2013-02-07 23:25:00,24.3,23.1,29.96,NW,324,0.0,0.0,95,0.00,,,0.12,VWS V14.01,2013-02-08 05:25:00,
2013-02-07 23:29:00,24.1,22.9,29.96,NNW,335,0.0,0.0,95,0.00,,,0.12,VWS V14.01,2013-02-08 05:29:00,
2013-02-07 23:30:00,24.1,22.9,29.96,NNW,335,0.0,0.0,95,0.00,,,0.12,VWS V14.01,2013-02-08 05:30:00,
2013-02-07 23:34:00,24.0,22.8,29.96,NW,323,0.0,0.0,95,0.00,,,0.12,VWS V14.01,2013-02-08 05:34:00,
2013-02-07 23:35:00,24.0,22.8,29.96,NW,323,0.0,0.0,95,0.00,,,0.12,VWS V14.01,2013-02-08 05:35:00,
2013-02-07 23:39:00,24.0,22.8,29.97,North,5,0.0,0.0,95,0.00,,,0.12,VWS V14.01,2013-02-08 05:39:00,
2013-02-07 23:40:00,24.0,22.8,29.97,North,5,0.0,0.0,95,0.00,,,0.12,VWS V14.01,2013-02-08 05:40:00,
2013-02-07 23:44:00,23.9,22.7,29.97,WNW,303,0.0,0.0,95,0.00,,,0.12,VWS V14.01,2013-02-08 05:44:00,
2013-02-07 23:45:00,23.9,22.7,29.97,WNW,303,0.0,0.0,95,0.00,,,0.12,VWS V14.01,2013-02-08 05:45:00,
2013-02-07 23:49:00,23.9,22.7,29.97,NW,319,0.0,0.0,95,0.00,,,0.12,VWS V14.01,2013-02-08 05:49:00,
2013-02-07 23:50:00,23.9,22.7,29.97,NW,319,0.0,0.0,95,0.00,,,0.12,VWS V14.01,2013-02-08 05:50:00,
2013-02-07 23:54:00,23.9,22.7,29.97,North,360,0.0,0.0,95,0.00,,,0.12,VWS V14.01,2013-02-08 05:54:00,
2013-02-07 23:55:00,23.9,22.7,29.97,North,360,0.0,0.0,95,0.00,,,0.12,VWS V14.01,2013-02-08 05:55:00,
2013-02-07 23:59:00,23.9,22.7,29.97,NW,314,0.0,0.0,95,0.00,,,0.00,VWS V14.01,2013-02-08 05:59:00,